GPS BIIR-11

Last updated on Sat Apr 11 2026 00:02:38 GMT+0000 (Coordinated Universal Time)

1 28190U 04009A 26099.33927017 .00000005 00000+0 00000+0 0 9994 2 28190 54.8875 278.4673 0112752 170.1857 12.8997 2.00557030161560
UTC large
Height (km)
Speed (km/s)
/
Latitude / Longitude
Inclination (degrees)
Orbital Period (minutes)
Azimuth
Elevation
Range (km)
Doppler Factor

Next 0 passes for location: London (51.5072 / 0.1276)

Sorry there are no passes over London.